Location: Mary A Oil Field
(38.5606°N, 98.9545°W)
Time: 00:32:58
(UTC+00:00)

Daily predictions for brighter satellites

Satellite Brightness Start Highest point End
(mag) Time Altitude Azimuth Time Altitude Azimuth Time Altitude Azimuth
Cosmos 2360 Rocket 3.2 00:05:29 10° NNW 00:10:58 53° WSW 00:16:23 10° S
Cosmos 1607 4.1 00:05:17 10° SSW 00:11:23 81° WNW 00:17:35 10° NNE
Cosmos 2227 Rocket 3.5 00:10:07 10° SSE 00:14:11 21° E 00:18:17 10° NE
Cosmos 1812 Rocket 4.2 00:11:57 10° NNE 00:16:02 33° ENE 00:20:04 10° SE
COSMOS 2428 2.8 00:12:52 10° NNW 00:18:32 57° ENE 00:24:09 10° SE
Cosmos 2219 Rocket 2.3 00:13:32 10° NNW 00:19:10 59° ENE 00:24:44 10° SE
YAOGAN 1 3.7 00:17:32 10° ESE 00:20:51 22° ENE 00:24:12 10° NNE
ISS -1.6 00:20:37 10° SSE 00:22:20 13° SE 00:24:03 10° E
Cosmos 1125 Rocket 3.5 00:18:51 10° S 00:24:00 76° ESE 00:29:13 10° NNE
BREEZE-M DEB (TANK) 1.9 00:23:37 10° SW 00:26:26 84° SE 00:28:22 13° ENE
Atlas Centaur 2 4.3 00:28:16 10° SSE 00:28:28 10° SE 00:28:39 10° SE
Cosmos-2242 4.2 00:32:25 10° NNE 00:35:41 20° ENE 00:38:54 10° ESE
Envisat 3.1 00:31:29 10° SSE 00:36:33 85° WSW 00:41:40 10° NNW
Cosmos 1602 Rocket 3.6 00:34:58 10° S 00:39:23 83° W 00:43:47 10° N
Cosmos 2154 Rocket 4.1 00:33:27 10° S 00:39:45 89° W 00:46:03 10° N
USA 234 3.8 00:34:57 10° SSE 00:41:24 61° SW 00:47:52 10° NW
Cosmos 1300 2.7 00:39:43 10° N 00:43:34 87° WSW 00:47:21 10° S
Cosmos 1269 Rocket 4.5 00:39:28 10° N 00:44:23 38° ENE 00:49:17 10° SE
Cosmos 1340 Rocket 2.7 00:42:02 10° N 00:45:57 66° E 00:49:54 10° SSE
Cosmos 724 4.3 00:40:05 10° SSW 00:46:01 65° ESE 00:51:46 11° NE
ERBS 2.4 00:43:46 10° SSW 00:47:02 57° SE 00:48:56 22° ENE
Cosmos 1048 Rocket 4.0 00:43:21 10° NNW 00:48:30 83° WSW 00:53:36 10° SSE
Cosmos 1461 3.1 00:44:09 10° NNW 00:48:32 83° WSW 00:53:04 10° SSE
Cosmos 1953 Rocket 4.3 00:46:56 10° SSE 00:50:51 31° E 00:54:13 13° NNE
CSL-04 Debris 4.3 00:46:07 10° SE 00:51:15 48° ENE 00:56:25 10° N
COSMO-SKYMED 1 2.7 00:47:23 10° N 00:51:45 80° WNW 00:56:04 10° SSW
Okean-O 3.1 00:48:09 10° S 00:52:32 64° W 00:56:57 10° NNW
Cosmos 1758 Rocket 3.5 00:51:55 10° S 00:56:09 62° E 01:00:25 10° NNE
Cosmos 1455 4.4 00:56:46 10° NNE 01:05:24 - SSE 00:57:01 11° NNE
Cosmos 1939 Rocket 3.1 00:57:05 10° SE 01:00:43 40° ENE 01:04:25 10° N
Meteor 2-10 Rocket 4.1 00:56:09 10° N 01:00:57 33° ENE 01:05:34 10° SE
Cosmos 1626 4.0 00:57:47 10° SW 01:01:07 32° WNW 01:04:29 10° NNW
YAOGAN 6 3.7 01:01:08 10° S 01:04:42 47° W 01:08:17 10° NNW
Cosmos 2333 Rocket 3.1 01:01:49 10° NNW 01:07:20 51° WSW 01:12:47 10° S
Cosmos 2237 Rocket 2.2 01:03:08 10° NNW 01:08:39 55° ENE 01:14:09 10° SE
Meteor 1-21 Rocket 4.1 01:03:28 10° S 01:09:00 83° E 01:14:41 10° N
Cosmos 2366 rocket 4.1 01:03:28 10° SSE 01:09:22 49° E 01:15:21 10° NNE
CZ-4C R/B 3.0 01:03:24 10° NNW 01:10:54 84° ENE 01:19:18 10° SSE
Cosmos 44 3.7 01:08:20 10° S 01:12:39 37° ESE 01:13:30 34° E
TIMED 4.5 01:08:24 10° NNW 01:12:48 85° WSW 01:17:09 10° SSE
SL-8 R/B 3.8 01:12:35 10° SW 01:17:19 63° SE 01:18:58 39° ENE
Ariane Rocket 3.4 01:18:27 30° ESE 01:20:00 37° ENE 01:24:39 10° N
CSL-04 Rocket 3.6 01:15:11 10° SSE 01:20:38 88° E 01:26:12 10° NNW
Cosmos 1932 4.4 01:14:34 10° SSW 01:20:54 82° ESE 01:25:26 21° NNE
Cosmos 1825 Rocket 3.7 01:17:55 10° SSW 01:22:16 75° W 01:26:37 10° N
CZ-4 R/B 2.4 01:22:46 10° S 01:26:37 47° W 01:30:34 10° NNW
Cosmos 494 Rocket 4.3 01:21:46 10° NNW 01:26:51 66° WSW 01:31:54 10° S
Shenzhou-11 Module 3.3 01:25:23 10° SW 01:27:01 30° SSW 01:27:01 30° SSW
SL-16 R/B 3.1 01:23:48 10° N 01:27:38 28° NE 01:27:38 28° NE
Cosmos 2219 3.8 01:23:50 10° SW 01:29:17 54° WNW 01:34:45 10° NNE
BREEZE-M DEB (TANK) 3.4 01:26:00 10° SW 01:30:00 47° SSE 01:30:00 47° SSE
H-2A ROCKET BODY 3.3 01:25:01 10° WSW 01:31:20 24° SSW 01:33:13 16° SSE
Cosmos 1703 3.1 01:28:38 10° S 01:32:24 68° ESE 01:32:24 68° ESE
Cosmos 2082 3.6 01:27:55 10° S 01:33:24 61° ESE 01:35:11 41° NE
ADEOS Rocket 3.2 01:29:55 10° NNE 01:36:30 71° ESE 01:43:46 10° S
Cosmos 1727 Rocket 4.0 01:31:46 10° N 01:37:47 51° E 01:43:45 10° SSE
Cosmos 2297 Rocket 2.7 01:40:14 10° SW 01:45:47 57° WNW 01:49:47 19° N
DELTA 2 R/B (1) 3.5 01:40:31 10° W 01:46:08 85° N 01:47:06 63° ENE
SL-8 Rocket 4.4 01:40:49 10° SSW 01:47:03 64° W 01:53:19 10° N
Cosmos 1980 4.1 01:44:53 10° NNW 01:50:29 61° WSW 01:56:04 10° S
Meteor 2-12 Rocket 4.3 01:47:34 10° S 01:53:30 61° E 01:53:36 61° E
YAOGAN 1 4.5 01:52:58 10° SSW 01:56:46 30° W 02:00:35 10° NW
Cosmos 2227 Rocket 2.9 01:52:20 10° SW 01:57:48 50° WNW 02:01:12 23° N
ISS -1.8 01:55:25 10° WSW 01:57:15 29° WSW 01:57:15 29° WSW
Atlas Centaur 2 3.6 02:11:29 10° SW 02:15:19 28° S 02:15:19 28° S
FALCON 9 R/B 3.7 02:15:39 10° SW 02:27:43 37° S 02:27:43 37° S
ATLAS 5 CENTAUR R/B 4.5 02:37:55 10° NNW 03:13:36 - SE 02:41:18 39° N
SL-16 R/B 4.4 03:07:45 10° NW 03:09:35 19° NW 03:09:35 19° NW
CZ-3 R/B 4.5 08:27:21 10° SW 09:19:51 53° SSE 09:31:46 10° E
Cosmos 2297 Rocket 3.7 10:43:36 31° ESE 10:43:36 31° ESE 10:46:38 10° SE
Cosmos 2227 Rocket 3.2 10:54:54 42° ESE 10:54:54 42° ESE 10:58:45 10° SE
Cosmos 2278 4.5 11:05:31 34° SSE 11:07:34 50° ESE 11:13:04 10° NNE
Cosmos 2369 3.9 11:16:43 67° NE 11:16:43 67° NE 11:21:42 10° NNE
USA 215 3.7 11:23:07 10° ESE 11:29:25 53° NE 11:32:12 33° NNW
Cosmos 2184 Rocket 3.8 11:27:40 41° NNW 11:30:01 82° W 11:36:17 10° S
COSMOS 2455 3.5 11:27:15 10° S 11:33:04 54° ESE 11:38:55 10° NE
STARLINK-53 4.5 11:35:11 45° SE 11:35:11 45° SE 11:38:54 10° ENE
Cosmos 1953 3.5 11:31:30 10° SSE 11:35:19 43° E 11:39:11 10° NNE
Cosmos 773 Rocket 3.8 11:36:10 81° WNW 11:36:11 81° WNW 11:41:30 10° NNE
Cosmos 2154 Rocket 4.1 11:31:50 10° N 11:38:02 72° E 11:44:13 10° SSE
Cosmos 1980 Rocket 2.5 11:32:55 10° S 11:38:33 67° ESE 11:44:11 10° NNE
STARLINK-41 4.2 11:41:52 50° SE 11:41:52 50° SE 11:45:35 10° ENE
FENGYUN 3A 4.0 11:39:14 10° NNE 11:44:35 63° E 11:49:57 10° S
Cosmos 44 Rocket 3.8 11:43:05 37° N 11:44:37 53° ENE 11:49:16 10° SE
COSMO-SKYMED 1 2.8 11:40:35 10° SSE 11:44:52 66° ENE 11:46:47 32° N
CENTAUR R/B 4.5 11:38:57 10° NNW 11:45:58 33° NE 11:53:35 10° ESE
Cosmos 1697 Rocket 2.7 11:47:02 55° NW 11:47:02 55° NW 11:52:22 10° NNE
STARLINK-58 3.9 11:47:49 57° SSE 11:48:12 60° SE 11:52:10 10° NE
STARLINK 4.0 11:49:13 50° SSE 11:49:40 54° SE 11:53:26 10° ENE
STARLINK-62 3.8 11:49:32 61° SSE 11:49:53 65° SE 11:53:53 10° NE
Meteor 1-24 Rocket 4.5 11:52:55 35° SW 11:52:55 35° SW 11:56:51 10° SSW
